Vertical_Velocity
0 1 1 2 -1 1 0 1 -0 -1 0 2 0 -1 -3 -2 -2 -2 -0 0 -0 -0 -1 -1 -2 -2 -0 2 0 -1 -2 -0 -0 -1 -1 -1 -1 -1 -1 -1 2 -3 -3
1 -0 -0 -2 -0 1 -0 1 0 0 0 -1 -2 -0 0 -2 -3 -1 -2 -1 0 -1 -1 -1 -1 -1 -2 -1 1 -0 0 -0 -1 -1 -1 -1 -1 -1 -0 -0 -1 0 0
1 0 -1 -0 -1 0 -1 -0 -1 -1 -0 -1 -0 -1 -0 -1 1 -3 -3 -2 -1 1 1 -0 -2 -1 -0 0 -2 -1 -0 -0 -1 -1 -1 -1 -2 -2 -0 1 -1 2 0
2 2 0 0 -1 -1 -2 -2 -1 -1 -0 -0 1 0 -1 -2 -3 -1 -0 -2 -0 -1 -1 -0 -1 -2 -1 -1 -0 -1 0 -1 -2 -2 -1 -1 -1 -2 -1 0 -1 -1 1
-2 0 -1 -1 -1 -1 -2 -2 -3 -1 -3 -1 -1 -1 1 3 -1 -3 -1 1 0 -0 -3 -3 -0 -1 -2 -2 -1 -2 -1 0 0 -2 -2 -1 -1 -3 -1 -1 -1 1 -1
-2 0 -1 -1 -2 -2 -1 -2 -1 -4 -1 -1 -1 -2 2 -5 1 3 0 -2 0 1 0 -3 -3 -1 -1 -1 -2 -0 -2 -2 1 -1 -1 -2 -2 -3 -1 -2 0 -0 2
-2 0 -2 -3 -3 -2 -1 -1 -2 -2 -2 -1 -1 -2 1 -1 -1 0 4 1 -0 -0 1 1 1 -3 -2 -1 -0 -1 -0 -1 -2 -2 -3 1 -2 3 -1 -2 -0 1 -0
-2 0 -3 -3 -2 0 -2 -2 -1 0 -0 0 0 -2 -1 2 5 -0 1 1 1 1 -2 -1 0 1 -1 -3 -2 -1 -1 -0 -1 -1 -4 -1 -1 -2 -5 -0 -2 1 -0
-1 -1 -0 -1 -1 -0 -2 0 -0 -2 0 1 2 -0 -1 1 2 3 -1 1 1 -1 -0 -1 0 -1 1 2 -0 -2 -2 -2 0 -0 -1 -3 -1 4 -1 -1 -1 -2 -1
1 -1 -1 -2 -2 0 -1 -1 -1 -0 -0 1 0 1 -4 2 3 2 -1 1 -1 2 -0 -0 -1 -1 -1 1 1 -0 0 0 -1 -1 -1 2 -1 1 -2 -2 -3 0 -1
1 1 1 1 0 -0 1 -0 -1 -2 0 1 -1 1 -0 2 3 1 4 -0 1 5 0 -0 1 1 -1 0 1 0 -1 -0 -1 -2 -1 1 1 0 -0 1 -2 1 3
-1 -1 -1 -2 -3 -3 -3 -3 -2 -2 -1 -2 -1 1 1 1 -1 14 18 12 4 -4 2 -1 2 1 -1 -1 1 1 -0 -1 -2 -1 -2 5 2 -1 1 -1 -1 3 -3
-1 -1 1 -1 0 -1 -1 -2 -3 -2 -3 -3 -3 -1 -0 -0 -1 3 3 3 5 11 4 2 1 2 -1 -3 -2 3 0 1 -0 0 6 4 -1 2 2 2 -1 2 -0
0 -1 -1 -2 -2 -1 -1 -1 -2 -3 -2 -1 -0 -0 -1 1 1 2 1 -0 -0 -0 11 0 2 3 -1 1 6 -3 0 -3 -0 2 -0 1 -3 0 -1 4 3 -1 3
-2 -3 -3 -3 -3 -4 -4 -4 -5 -4 -2 -3 -3 -1 -2 -1 -0 1 1 0 -0 -2 5 0 2 -2 4 -4 2 11 4 10 0 -3 -3 11 -1 -0 1 -1 -1 2 1
-3 -3 -2 -1 -1 -0 0 -1 -2 -1 -2 -1 -1 -1 -0 -1 2 -1 3 0 1 1 -2 1 -44 32 2 1 -1 10 12 3 -2 -4 -4 9 0 9 2 2 -2 3 1
-0 -1 -0 1 1 -0 1 -0 -1 -2 -3 -5 -4 -4 -2 -3 -2 0 -1 1 -0 -0 0 -1 -6 -0 -1 15 8 4 17 6 17 11 5 -2 9 -1 -3 2 -2 -1 2
0 1 0 -2 -0 -1 1 1 0 0 -3 1 -0 -7 -4 -1 -7 3 -2 -3 -4 0 3 1 -3 -4 0 0 2 3 -1 -13 39 94 17 3 3 0 5 -4 3 -3 -3
-1 -1 -1 -0 1 1 2 2 2 3 1 1 -0 -1 -4 2 -3 -5 -3 0 -1 -3 -4 -4 4 -1 1 2 0 -5 -4 -9 2 18 14 16 10 3 -6 -7 3 2 -4
-2 -2 -2 -1 2 2 3 1 -1 -1 -2 1 1 -1 -0 3 1 -1 -0 -3 -1 0 1 -6 -5 -3 3 5 2 1 -5 -3 -5 12 4 7 0 1 -1 3 -1 0 1
-1 -1 -2 -2 -2 -1 -2 -3 -2 -1 -1 -0 -0 -2 -4 -2 -3 2 -1 2 4 -3 -1 -1 -5 -4 -1 2 -5 8 3 -9 -2 -1 8 5 -1 -4 -6 3 7 2 2
-3 -0 -0 -1 -2 -2 -4 -3 -3 0 3 -1 -3 -5 -2 -6 -3 -7 -7 -8 -8 -2 2 2 -3 -4 -2 1 -6 -4 5 -2 -0 6 -1 6 -0 -0 -4 -0 -1 8 7
-1 -0 -1 -2 -5 -6 -5 -6 -3 -5 -3 -2 -0 -1 -2 -5 -2 -6 -6 -3 -4 -12 -9 -4 0 -2 -1 6 -5 -8 -0 3 -11 5 -3 -3 -2 -4 2 -2 3 2 4
-2 -3 -6 -4 -7 -7 -7 -8 -8 -6 -0 -1 -3 -3 -2 -5 1 3 -3 -7 -1 -2 -3 -1 2 -4 -3 9 0 3 -4 3 -10 -7 -7 -2 -1 -2 2 1 6 -2 0
-2 -3 -2 -3 -4 -6 -6 -5 -5 -0 -4 -3 -1 3 0 1 -5 -7 -2 2 1 1 3 -4 -6 -3 0 -1 6 5 3 2 -3 -6 -0 -7 -1 2 8 5 -3 1 1
-3 -3 -1 -4 -9 -7 -5 -4 -6 -3 -1 -2 -2 -3 -1 0 3 -2 -3 -2 -1 2 3 4 1 -3 -3 -3 3 -0 8 -8 11 -8 -10 4 0 4 -2 -1 3 2 2
Height
5859 5858 5859 5858 5858 5857 5856 5855 5854 5853 5853 5852 5850 5848 5847 5846 5845 5845 5843 5843 5842 5842 5841 5840 5840 5839 5838 5838 5838 5838 5837 5837 5836 5836 5836 5835 5834 5833 5832 5831 5828 5827 5825
5857 5856 5855 5855 5854 5854 5854 5853 5853 5852 5851 5850 5849 5848 5847 5846 5844 5843 5842 5841 5840 5839 5839 5838 5838 5836 5836 5836 5836 5836 5836 5835 5835 5834 5833 5832 5831 5830 5830 5829 5828 5826 5823
5854 5853 5852 5851 5850 5850 5850 5850 5850 5850 5849 5848 5847 5846 5844 5843 5842 5842 5840 5840 5838 5838 5837 5836 5835 5835 5834 5834 5834 5834 5833 5833 5832 5832 5831 5830 5829 5828 5827 5826 5825 5823 5822
5852 5850 5849 5848 5847 5847 5846 5845 5846 5846 5846 5845 5844 5843 5842 5840 5839 5838 5837 5837 5836 5835 5835 5835 5834 5833 5832 5832 5832 5831 5830 5830 5829 5829 5828 5828 5827 5826 5825 5824 5823 5822 5821
5847 5847 5846 5845 5844 5844 5843 5843 5843 5842 5842 5842 5841 5840 5839 5838 5837 5836 5835 5834 5833 5832 5832 5832 5832 5831 5830 5829 5828 5827 5828 5828 5828 5826 5826 5826 5825 5825 5823 5823 5821 5820 5819
5844 5844 5842 5841 5840 5840 5839 5839 5838 5838 5837 5837 5837 5836 5834 5834 5833 5832 5833 5832 5830 5829 5829 5829 5828 5827 5827 5826 5826 5825 5825 5824 5825 5824 5824 5823 5823 5822 5822 5821 5820 5819 5819
5840 5840 5838 5837 5836 5835 5834 5833 5833 5832 5832 5832 5832 5831 5829 5829 5829 5829 5828 5827 5827 5825 5824 5824 5824 5823 5823 5823 5822 5822 5822 5821 5820 5821 5821 5821 5820 5820 5820 5819 5818 5817 5817
5835 5835 5833 5831 5831 5830 5828 5827 5827 5827 5827 5827 5826 5826 5825 5823 5823 5823 5824 5823 5822 5821 5820 5819 5819 5819 5819 5818 5818 5818 5818 5818 5817 5816 5816 5816 5816 5816 5816 5816 5816 5815 5815
5831 5830 5829 5828 5826 5825 5824 5823 5822 5821 5822 5821 5821 5821 5821 5819 5818 5817 5817 5818 5817 5816 5816 5815 5815 5814 5814 5813 5813 5813 5813 5813 5814 5813 5813 5812 5813 5813 5812 5812 5812 5813 5814
5827 5826 5825 5824 5822 5820 5819 5818 5817 5816 5816 5815 5815 5815 5814 5814 5812 5811 5811 5811 5810 5810 5810 5809 5809 5809 5809 5808 5807 5808 5808 5808 5808 5809 5809 5810 5809 5809 5809 5809 5809 5810 5811
5822 5821 5819 5818 5817 5816 5814 5813 5811 5811 5810 5809 5809 5809 5808 5808 5806 5804 5805 5805 5803 5803 5805 5804 5803 5803 5803 5803 5803 5802 5803 5804 5803 5803 5804 5805 5805 5806 5806 5805 5805 5806 5807
5817 5816 5815 5814 5812 5811 5810 5808 5807 5806 5805 5803 5803 5802 5801 5801 5800 5798 5795 5795 5792 5797 5797 5797 5797 5796 5796 5795 5796 5796 5797 5798 5798 5798 5798 5800 5801 5802 5802 5801 5800 5802 5803
5811 5810 5810 5809 5807 5806 5805 5803 5802 5801 5799 5798 5797 5796 5795 5794 5794 5793 5793 5792 5790 5789 5786 5788 5788 5788 5787 5787 5787 5789 5789 5789 5790 5792 5793 5794 5795 5796 5798 5798 5797 5797 5799
5806 5805 5804 5803 5802 5800 5799 5797 5796 5794 5792 5790 5789 5789 5788 5787 5785 5785 5785 5784 5783 5783 5781 5780 5780 5780 5779 5778 5778 5779 5781 5782 5782 5784 5785 5789 5789 5791 5793 5794 5794 5794 5793
5800 5798 5797 5795 5793 5791 5790 5789 5787 5786 5785 5783 5781 5780 5779 5778 5777 5775 5774 5774 5774 5773 5773 5773 5775 5772 5770 5769 5770 5772 5773 5773 5773 5775 5776 5779 5780 5784 5785 5788 5789 5789 5790
5791 5789 5787 5785 5783 5781 5779 5777 5776 5774 5773 5771 5770 5768 5767 5766 5766 5765 5763 5762 5761 5761 5762 5763 5768 5759 5764 5762 5762 5761 5762 5761 5762 5765 5768 5770 5773 5775 5778 5779 5782 5784 5785
5780 5778 5776 5774 5772 5770 5768 5766 5764 5762 5761 5759 5758 5757 5755 5754 5753 5752 5751 5749 5748 5748 5749 5750 5752 5753 5755 5756 5755 5749 5750 5752 5753 5753 5756 5760 5764 5766 5770 5772 5774 5776 5779
5770 5768 5765 5763 5760 5757 5755 5753 5751 5749 5746 5745 5744 5743 5742 5742 5740 5739 5738 5737 5735 5735 5734 5734 5737 5739 5742 5743 5743 5742 5742 5745 5743 5733 5744 5752 5752 5754 5759 5763 5766 5768 5772
5759 5756 5752 5749 5745 5742 5739 5736 5735 5733 5732 5730 5728 5726 5725 5724 5723 5723 5722 5721 5721 5721 5720 5719 5721 5723 5725 5728 5730 5727 5731 5733 5736 5736 5735 5742 5744 5746 5748 5752 5757 5760 5763
5748 5744 5740 5736 5732 5728 5724 5720 5717 5715 5713 5711 5709 5709 5709 5708 5708 5706 5705 5705 5705 5705 5705 5704 5705 5708 5709 5712 5713 5715 5717 5721 5725 5729 5731 5736 5739 5740 5743 5743 5745 5751 5755
5736 5732 5728 5723 5719 5714 5711 5707 5703 5699 5696 5692 5690 5689 5688 5689 5689 5689 5689 5689 5689 5689 5689 5689 5689 5690 5693 5695 5696 5698 5702 5708 5713 5718 5723 5725 5727 5732 5735 5736 5739 5738 5744
5723 5718 5713 5708 5703 5699 5695 5691 5687 5683 5679 5677 5673 5670 5668 5666 5667 5667 5668 5670 5669 5670 5671 5672 5672 5673 5675 5678 5679 5681 5684 5691 5699 5705 5709 5714 5717 5720 5724 5726 5726 5729 5733
5709 5704 5698 5693 5688 5683 5678 5673 5668 5663 5660 5656 5653 5650 5647 5646 5644 5642 5642 5643 5646 5647 5651 5652 5653 5654 5657 5661 5661 5662 5667 5672 5677 5691 5694 5700 5705 5709 5712 5716 5718 5721 5726
5694 5690 5685 5679 5673 5666 5660 5655 5650 5645 5639 5633 5629 5625 5622 5619 5619 5619 5619 5619 5619 5620 5625 5628 5631 5633 5637 5643 5644 5646 5649 5653 5659 5669 5680 5687 5691 5696 5700 5703 5710 5713 5716
5684 5678 5670 5662 5655 5648 5642 5636 5631 5625 5619 5613 5609 5606 5602 5600 5597 5598 5599 5601 5601 5601 5603 5606 5608 5611 5615 5619 5624 5625 5629 5636 5643 5650 5663 5671 5678 5682 5686 5691 5697 5702 5705
5670 5663 5655 5647 5640 5633 5627 5619 5613 5608 5601 5597 5593 5590 5587 5585 5583 5582 5583 5584 5585 5585 5585 5586 5590 5593 5596 5599 5604 5607 5610 5617 5628 5632 5643 5656 5664 5671 5673 5679 5683 5687 5693